Location: *
(45.9500°N, 9.0833°E)
Time: 20:09:50
(UTC+00:00)

Tiros 1 - Pass Details

Date: 19 June 2021
Orbit: 630 x 664 km, 48.4° (Epoch: 05 August)

Event Time Altitude Azimuth Distance (km) Brightness Sun altitude
Rises 12:28:57 0° 274° (W) 2,935 10.7 64.0°
Reaches altitude 10° 12:31:17 10° 278° (W) 2,031 10.0 63.8°
Maximum altitude 12:35:56 64° 360° (N) 717 8.1 63.3°
Drops below altitude 10° 12:40:39 10° 82° (E) 2,054 9.6 62.8°
Sets 12:43:01 0° 86° (E) 2,970 10.4 62.5°
